Year,Month,Day,Hour,Minute,Value (Times are PST for temperature in C)
2008,04,18,00,00,6.10
2008,04,18,00,01,6.10
2008,04,18,00,03,6.10
2008,04,18,00,04,6.10
2008,04,18,00,05,6.10
2008,04,18,00,06,6.10
2008,04,18,00,07,6.10
2008,04,18,00,08,6.10
2008,04,18,00,10,6.10
2008,04,18,00,11,6.10
2008,04,18,00,12,6.10
2008,04,18,00,13,6.10
2008,04,18,00,14,6.10
2008,04,18,00,15,6.10
2008,04,18,00,16,6.10
2008,04,18,00,18,6.10
2008,04,18,00,20,6.10
2008,04,18,00,21,6.10
2008,04,18,00,22,6.10
2008,04,18,00,23,6.10
2008,04,18,00,24,6.10
2008,04,18,00,26,6.10
2008,04,18,00,27,6.10
2008,04,18,00,28,6.10
2008,04,18,00,29,6.10
2008,04,18,00,31,6.10
2008,04,18,00,32,6.10
2008,04,18,00,33,6.10
2008,04,18,00,34,6.00
2008,04,18,00,35,6.00
2008,04,18,00,36,6.00
2008,04,18,00,37,6.00
2008,04,18,00,38,6.00
2008,04,18,00,39,6.00
2008,04,18,00,40,6.00
2008,04,18,00,41,6.00
2008,04,18,00,42,6.00
2008,04,18,00,43,6.00
2008,04,18,00,44,6.00
2008,04,18,00,45,6.00
2008,04,18,00,46,6.00
2008,04,18,00,47,6.00
2008,04,18,00,48,6.00
2008,04,18,00,50,6.00
2008,04,18,00,51,6.00
2008,04,18,00,52,6.00
2008,04,18,00,54,6.00
2008,04,18,00,55,6.00
2008,04,18,00,56,6.00
2008,04,18,00,57,6.00
2008,04,18,00,58,6.00
2008,04,18,00,59,6.00
2008,04,18,01,00,5.90
2008,04,18,01,02,5.90
2008,04,18,01,03,5.90
2008,04,18,01,05,5.90
2008,04,18,01,06,5.90
2008,04,18,01,07,5.90
2008,04,18,01,08,5.90
2008,04,18,01,09,5.90
2008,04,18,01,10,5.90
2008,04,18,01,11,5.90
2008,04,18,01,12,5.90
2008,04,18,01,13,5.90
2008,04,18,01,15,5.90
2008,04,18,01,17,5.90
2008,04,18,01,18,5.90
2008,04,18,01,19,5.90
2008,04,18,01,21,5.90
2008,04,18,01,22,5.90
2008,04,18,01,23,5.90
2008,04,18,01,25,5.90
2008,04,18,01,26,5.90
2008,04,18,01,28,5.90
2008,04,18,01,29,5.90
2008,04,18,01,30,5.90
2008,04,18,01,31,5.90
2008,04,18,01,33,5.90
2008,04,18,01,34,5.90
2008,04,18,01,36,5.90
2008,04,18,01,37,5.90
2008,04,18,01,38,5.90
2008,04,18,01,39,5.90
2008,04,18,01,40,5.90
2008,04,18,01,41,5.80
2008,04,18,01,42,5.90
2008,04,18,01,43,5.90
2008,04,18,01,44,5.80
2008,04,18,01,45,5.80
2008,04,18,01,46,5.80
2008,04,18,01,47,5.80
2008,04,18,01,48,5.80
2008,04,18,01,49,5.80
2008,04,18,01,50,5.80
2008,04,18,01,51,5.80
2008,04,18,01,53,5.80
2008,04,18,01,54,5.80
2008,04,18,01,55,5.80
2008,04,18,01,56,5.80
2008,04,18,01,57,5.70
2008,04,18,01,58,5.70
2008,04,18,01,59,5.70
2008,04,18,02,00,5.70
2008,04,18,02,01,5.70
2008,04,18,02,02,5.70
2008,04,18,02,03,5.70
2008,04,18,02,04,5.70
2008,04,18,02,05,5.70
2008,04,18,02,06,5.70
2008,04,18,02,07,5.60
2008,04,18,02,08,5.70
2008,04,18,02,09,5.60
2008,04,18,02,10,5.60
2008,04,18,02,11,5.60
2008,04,18,02,12,5.60
2008,04,18,02,13,5.60
2008,04,18,02,14,5.60
2008,04,18,02,15,5.60
2008,04,18,02,16,5.50
2008,04,18,02,17,5.50
2008,04,18,02,19,5.40
2008,04,18,02,20,5.40
2008,04,18,02,21,5.40
2008,04,18,02,22,5.40
2008,04,18,02,23,5.40
2008,04,18,02,24,5.30
2008,04,18,02,25,5.30
2008,04,18,02,26,5.30
2008,04,18,02,27,5.30
2008,04,18,02,28,5.30
2008,04,18,02,29,5.30
2008,04,18,02,30,5.20
2008,04,18,02,31,5.20
2008,04,18,02,32,5.20
2008,04,18,02,33,5.20
2008,04,18,02,34,5.20
2008,04,18,02,35,5.20
2008,04,18,02,36,5.10
2008,04,18,02,37,5.10
2008,04,18,02,38,5.10
2008,04,18,02,39,5.10
2008,04,18,02,40,5.10
2008,04,18,02,41,5.10
2008,04,18,02,42,5.10
2008,04,18,02,43,5.10
2008,04,18,02,44,5.10
2008,04,18,02,45,5.10
2008,04,18,02,46,5.10
2008,04,18,02,47,5.00
2008,04,18,02,48,5.00
2008,04,18,02,49,5.00
2008,04,18,02,50,5.00
2008,04,18,02,51,4.90
2008,04,18,02,52,4.90
2008,04,18,02,53,4.90
2008,04,18,02,54,4.80
2008,04,18,02,55,4.80
2008,04,18,02,56,4.70
2008,04,18,02,57,4.70
2008,04,18,02,58,4.60
2008,04,18,02,59,4.50
2008,04,18,03,00,4.40
2008,04,18,03,01,4.40
2008,04,18,03,02,4.30
2008,04,18,03,03,4.20
2008,04,18,03,04,4.20
2008,04,18,03,05,4.20
2008,04,18,03,06,4.10
2008,04,18,03,07,4.10
2008,04,18,03,08,4.00
2008,04,18,03,09,4.00
2008,04,18,03,10,3.90
2008,04,18,03,11,3.90
2008,04,18,03,12,3.90
2008,04,18,03,13,3.80
2008,04,18,03,14,3.80
2008,04,18,03,15,3.70
2008,04,18,03,16,3.70
2008,04,18,03,17,3.70
2008,04,18,03,18,3.70
2008,04,18,03,19,3.60
2008,04,18,03,20,3.60
2008,04,18,03,21,3.60
2008,04,18,03,22,3.60
2008,04,18,03,24,3.60
2008,04,18,03,25,3.50
2008,04,18,03,26,3.50
2008,04,18,03,27,3.40
2008,04,18,03,28,3.40
2008,04,18,03,29,3.40
2008,04,18,03,30,3.40
2008,04,18,03,31,3.40
2008,04,18,03,32,3.40
2008,04,18,03,33,3.40
2008,04,18,03,34,3.40
2008,04,18,03,35,3.40
2008,04,18,03,36,3.40
2008,04,18,03,37,3.40
2008,04,18,03,38,3.40
2008,04,18,03,39,3.40
2008,04,18,03,40,3.40
2008,04,18,03,41,3.40
2008,04,18,03,42,3.40
2008,04,18,03,43,3.40
2008,04,18,03,44,3.40
2008,04,18,03,45,3.40
2008,04,18,03,46,3.30
2008,04,18,03,47,3.30
2008,04,18,03,48,3.30
2008,04,18,03,49,3.30
2008,04,18,03,50,3.30
2008,04,18,03,51,3.30
2008,04,18,03,52,3.30
2008,04,18,03,53,3.30
2008,04,18,03,54,3.30
2008,04,18,03,55,3.30
2008,04,18,03,56,3.20
2008,04,18,03,57,3.20
2008,04,18,03,58,3.20
2008,04,18,03,59,3.20
2008,04,18,04,00,3.20
2008,04,18,04,01,3.20
2008,04,18,04,02,3.20
2008,04,18,04,03,3.10
2008,04,18,04,04,3.10
2008,04,18,04,05,3.10
2008,04,18,04,06,3.10
2008,04,18,04,07,3.10
2008,04,18,04,08,3.00
2008,04,18,04,09,3.00
2008,04,18,04,10,3.00
2008,04,18,04,11,2.90
2008,04,18,04,12,2.90
2008,04,18,04,13,2.90
2008,04,18,04,14,2.90
2008,04,18,04,15,2.90
2008,04,18,04,16,2.90
2008,04,18,04,17,2.80
2008,04,18,04,18,2.80
2008,04,18,04,20,2.80
2008,04,18,04,21,2.80
2008,04,18,04,22,2.70
2008,04,18,04,23,2.70
2008,04,18,04,24,2.70
2008,04,18,04,25,2.70
2008,04,18,04,26,2.70
2008,04,18,04,27,2.70
2008,04,18,04,28,2.60
2008,04,18,04,29,2.60
2008,04,18,04,30,2.60
2008,04,18,04,31,2.60
2008,04,18,04,32,2.50
2008,04,18,04,33,2.50
2008,04,18,04,34,2.50
2008,04,18,04,35,2.40
2008,04,18,04,36,2.40
2008,04,18,04,37,2.40
2008,04,18,04,38,2.40
2008,04,18,04,39,2.40
2008,04,18,04,40,2.40
2008,04,18,04,41,2.30
2008,04,18,04,42,2.30
2008,04,18,04,43,2.30
2008,04,18,04,44,2.30
2008,04,18,04,45,2.30
2008,04,18,04,46,2.30
2008,04,18,04,47,2.30
2008,04,18,04,48,2.20
2008,04,18,04,49,2.20
2008,04,18,04,50,2.20
2008,04,18,04,51,2.20
2008,04,18,04,52,2.20
2008,04,18,04,53,2.20
2008,04,18,04,54,2.20
2008,04,18,04,55,2.10
2008,04,18,04,56,2.10
2008,04,18,04,57,2.10
2008,04,18,04,58,2.10
2008,04,18,04,59,2.00
2008,04,18,05,00,2.00
2008,04,18,05,01,2.00
2008,04,18,05,02,2.00
2008,04,18,05,03,1.90
2008,04,18,05,04,1.90
2008,04,18,05,05,1.90
2008,04,18,05,06,1.90
2008,04,18,05,07,1.90
2008,04,18,05,08,1.80
2008,04,18,05,09,1.80
2008,04,18,05,10,1.80
2008,04,18,05,11,1.80
2008,04,18,05,12,1.80
2008,04,18,05,13,1.80
2008,04,18,05,14,1.80
2008,04,18,05,15,1.80
2008,04,18,05,16,1.70
2008,04,18,05,17,1.70
2008,04,18,05,18,1.70
2008,04,18,05,19,1.70
2008,04,18,05,20,1.70
2008,04,18,05,21,1.70
2008,04,18,05,22,1.70
2008,04,18,05,23,1.70
2008,04,18,05,24,1.60
2008,04,18,05,25,1.60
2008,04,18,05,26,1.60
2008,04,18,05,27,1.60
2008,04,18,05,29,1.60
2008,04,18,05,30,1.60
2008,04,18,05,31,1.60
2008,04,18,05,32,1.50
2008,04,18,05,33,1.50
2008,04,18,05,34,1.50
2008,04,18,05,35,1.50
2008,04,18,05,36,1.40
2008,04,18,05,37,1.40
2008,04,18,05,38,1.40
2008,04,18,05,39,1.40
2008,04,18,05,40,1.40
2008,04,18,05,41,1.40
2008,04,18,05,42,1.40
2008,04,18,05,43,1.40
2008,04,18,05,44,1.40
2008,04,18,05,45,1.40
2008,04,18,05,46,1.40
2008,04,18,05,47,1.40
2008,04,18,05,48,1.40
2008,04,18,05,49,1.40
2008,04,18,05,50,1.40
2008,04,18,05,51,1.40
2008,04,18,05,52,1.50
2008,04,18,05,53,1.40
2008,04,18,05,54,1.50
2008,04,18,05,55,1.50
2008,04,18,05,56,1.50
2008,04,18,05,57,1.50
2008,04,18,05,58,1.50
2008,04,18,05,59,1.50
2008,04,18,06,00,1.50
2008,04,18,06,01,1.50
2008,04,18,06,02,1.50
2008,04,18,06,03,1.50
2008,04,18,06,04,1.50
2008,04,18,06,05,1.50
2008,04,18,06,06,1.60
2008,04,18,06,07,1.50
2008,04,18,06,08,1.60
2008,04,18,06,09,1.60
2008,04,18,06,10,1.60
2008,04,18,06,11,1.60
2008,04,18,06,12,1.60
2008,04,18,06,13,1.60
2008,04,18,06,14,1.60
2008,04,18,06,15,1.60
2008,04,18,06,16,1.60
2008,04,18,06,17,1.60
2008,04,18,06,18,1.60
2008,04,18,06,19,1.60
2008,04,18,06,21,1.70
2008,04,18,06,22,1.70
2008,04,18,06,23,1.70
2008,04,18,06,24,1.70
2008,04,18,06,25,1.70
2008,04,18,06,26,1.70
2008,04,18,06,27,1.70
2008,04,18,06,28,1.70
2008,04,18,06,29,1.70
2008,04,18,06,30,1.70
2008,04,18,06,31,1.70
2008,04,18,06,32,1.60
2008,04,18,06,33,1.70
2008,04,18,06,34,1.60
2008,04,18,06,35,1.60
2008,04,18,06,36,1.60
2008,04,18,06,38,1.60
2008,04,18,06,39,1.60
2008,04,18,06,40,1.60
2008,04,18,06,41,1.60
2008,04,18,06,42,1.60
2008,04,18,06,43,1.60
2008,04,18,06,44,1.50
2008,04,18,06,45,1.50
2008,04,18,06,46,1.50
2008,04,18,06,47,1.50
2008,04,18,06,48,1.50
2008,04,18,06,49,1.50
2008,04,18,06,50,1.50
2008,04,18,06,51,1.50
2008,04,18,06,52,1.50
2008,04,18,06,53,1.40
2008,04,18,06,54,1.40
2008,04,18,06,55,1.40
2008,04,18,06,56,1.40
2008,04,18,06,57,1.40
2008,04,18,06,58,1.40
2008,04,18,06,59,1.40
2008,04,18,07,00,1.40
2008,04,18,07,01,1.40
2008,04,18,07,02,1.40
2008,04,18,07,03,1.30
2008,04,18,07,04,1.40
2008,04,18,07,05,1.40
2008,04,18,07,06,1.30
2008,04,18,07,07,1.30
2008,04,18,07,08,1.30
2008,04,18,07,09,1.30
2008,04,18,07,10,1.30
2008,04,18,07,11,1.30
2008,04,18,07,12,1.30
2008,04,18,07,13,1.30
2008,04,18,07,14,1.30
2008,04,18,07,15,1.30
2008,04,18,07,16,1.30
2008,04,18,07,17,1.30
2008,04,18,07,18,1.30
2008,04,18,07,19,1.30
2008,04,18,07,20,1.30
2008,04,18,07,21,1.30
2008,04,18,07,22,1.30
2008,04,18,07,23,1.30
2008,04,18,07,24,1.40
2008,04,18,07,25,1.40
2008,04,18,07,26,1.40
2008,04,18,07,27,1.50
2008,04,18,07,28,1.50
2008,04,18,07,29,1.50
2008,04,18,07,30,1.50
2008,04,18,07,31,1.50
2008,04,18,07,32,1.60
2008,04,18,07,33,1.60
2008,04,18,07,34,1.60
2008,04,18,07,35,1.60
2008,04,18,07,36,1.60
2008,04,18,07,37,1.60
2008,04,18,07,38,1.60
2008,04,18,07,39,1.60
2008,04,18,07,40,1.60
2008,04,18,07,41,1.70
2008,04,18,07,42,1.70
2008,04,18,07,43,1.70
2008,04,18,07,44,1.70
2008,04,18,07,45,1.70
2008,04,18,07,46,1.70
2008,04,18,07,47,1.70
2008,04,18,07,48,1.70
2008,04,18,07,49,1.70
2008,04,18,07,50,1.80
2008,04,18,07,51,1.80
2008,04,18,07,52,1.80
2008,04,18,07,53,1.80
2008,04,18,07,54,1.80
2008,04,18,07,55,1.80
2008,04,18,07,56,1.90
2008,04,18,07,57,1.90
2008,04,18,07,58,1.90
2008,04,18,07,59,1.90
2008,04,18,08,00,2.00
2008,04,18,08,01,2.00
2008,04,18,08,02,2.10
2008,04,18,08,03,2.10
2008,04,18,08,04,2.10
2008,04,18,08,05,2.20
2008,04,18,08,06,2.20
2008,04,18,08,07,2.20
2008,04,18,08,08,2.20
2008,04,18,08,09,2.30
2008,04,18,08,10,2.30
2008,04,18,08,11,2.30
2008,04,18,08,12,2.40
2008,04,18,08,13,2.40
2008,04,18,08,14,2.40
2008,04,18,08,15,2.50
2008,04,18,08,16,2.50
2008,04,18,08,17,2.60
2008,04,18,08,18,2.60
2008,04,18,08,19,2.70
2008,04,18,08,20,2.70
2008,04,18,08,21,2.70
2008,04,18,08,22,2.80
2008,04,18,08,23,2.80
2008,04,18,08,24,2.90
2008,04,18,08,25,2.90
2008,04,18,08,26,2.90
2008,04,18,08,27,3.00
2008,04,18,08,28,3.10
2008,04,18,08,29,3.10
2008,04,18,08,30,3.20
2008,04,18,08,31,3.20
2008,04,18,08,32,3.30
2008,04,18,08,33,3.30
2008,04,18,08,34,3.40
2008,04,18,08,35,3.40
2008,04,18,08,36,3.50
2008,04,18,08,37,3.60
2008,04,18,08,38,3.60
2008,04,18,08,39,3.70
2008,04,18,08,40,3.70
2008,04,18,08,41,3.70
2008,04,18,08,42,3.80
2008,04,18,08,43,3.80
2008,04,18,08,44,3.80
2008,04,18,08,45,3.90
2008,04,18,08,46,3.90
2008,04,18,08,47,3.90
2008,04,18,08,48,4.00
2008,04,18,08,49,4.10
2008,04,18,08,50,4.10
2008,04,18,08,51,4.10
2008,04,18,08,52,4.20
2008,04,18,08,53,4.20
2008,04,18,08,54,4.20
2008,04,18,08,55,4.30
2008,04,18,08,56,4.30
2008,04,18,08,57,4.30
2008,04,18,08,58,4.40
2008,04,18,08,59,4.40
2008,04,18,09,00,4.40
2008,04,18,09,01,4.50
2008,04,18,09,02,4.60
2008,04,18,09,03,4.60
2008,04,18,09,04,4.60
2008,04,18,09,05,4.70
2008,04,18,09,06,4.70
2008,04,18,09,07,4.70
2008,04,18,09,08,4.80
2008,04,18,09,09,4.80
2008,04,18,09,10,4.80
2008,04,18,09,11,4.80
2008,04,18,09,12,4.80
2008,04,18,09,13,4.90
2008,04,18,09,14,4.90
2008,04,18,09,15,4.90
2008,04,18,09,16,4.90
2008,04,18,09,17,4.90
2008,04,18,09,18,4.90
2008,04,18,09,19,4.90
2008,04,18,09,20,5.00
2008,04,18,09,21,5.00
2008,04,18,09,22,5.00
2008,04,18,09,23,5.10
2008,04,18,09,24,5.10
2008,04,18,09,25,5.10
2008,04,18,09,26,5.20
2008,04,18,09,27,5.20
2008,04,18,09,28,5.20
2008,04,18,09,29,5.30
2008,04,18,09,30,5.30
2008,04,18,09,31,5.30
2008,04,18,09,32,5.40
2008,04,18,09,33,5.40
2008,04,18,09,34,5.40
2008,04,18,09,35,5.40
2008,04,18,09,36,5.50
2008,04,18,09,37,5.50
2008,04,18,09,38,5.60
2008,04,18,09,39,5.60
2008,04,18,09,40,5.60
2008,04,18,09,41,5.70
2008,04,18,09,42,5.70
2008,04,18,09,43,5.70
2008,04,18,09,44,5.70
2008,04,18,09,45,5.80
2008,04,18,09,46,5.80
2008,04,18,09,47,5.80
2008,04,18,09,48,5.80
2008,04,18,09,49,5.90
2008,04,18,09,50,5.90
2008,04,18,09,51,5.90
2008,04,18,09,52,6.00
2008,04,18,09,53,6.00
2008,04,18,09,54,6.00
2008,04,18,09,55,6.10
2008,04,18,09,56,6.10
2008,04,18,09,57,6.10
2008,04,18,09,58,6.10
2008,04,18,09,59,6.20
2008,04,18,10,00,6.20
2008,04,18,10,01,6.20
2008,04,18,10,02,6.20
2008,04,18,10,03,6.20
2008,04,18,10,04,6.20
2008,04,18,10,05,6.20
2008,04,18,10,06,6.20
2008,04,18,10,07,6.20
2008,04,18,10,08,6.20
2008,04,18,10,09,6.20
2008,04,18,10,10,6.20
2008,04,18,10,11,6.20
2008,04,18,10,12,6.20
2008,04,18,10,13,6.20
2008,04,18,10,14,6.20
2008,04,18,10,15,6.20
2008,04,18,10,16,6.20
2008,04,18,10,17,6.20
2008,04,18,10,18,6.20
2008,04,18,10,19,6.20
2008,04,18,10,20,6.20
2008,04,18,10,21,6.20
2008,04,18,10,22,6.20
2008,04,18,10,23,6.20
2008,04,18,10,24,6.20
2008,04,18,10,25,6.30
2008,04,18,10,26,6.30
2008,04,18,10,27,6.30
2008,04,18,10,28,6.30
2008,04,18,10,29,6.40
2008,04,18,10,30,6.40
2008,04,18,10,31,6.40
2008,04,18,10,32,6.50
2008,04,18,10,33,6.60
2008,04,18,10,34,6.60
2008,04,18,10,35,6.60
2008,04,18,10,36,6.60
2008,04,18,10,37,6.60
2008,04,18,10,38,6.70
2008,04,18,10,39,6.70
2008,04,18,10,40,6.80
2008,04,18,10,41,6.80
2008,04,18,10,42,6.80
2008,04,18,10,43,6.80
2008,04,18,10,44,6.90
2008,04,18,10,45,6.90
2008,04,18,10,46,6.90
2008,04,18,10,47,6.90
2008,04,18,10,48,6.90
2008,04,18,10,49,6.90
2008,04,18,10,50,7.00
2008,04,18,10,51,7.10
2008,04,18,10,52,7.20
2008,04,18,10,53,7.20
2008,04,18,10,54,7.30
2008,04,18,10,55,7.30
2008,04,18,10,56,7.30
2008,04,18,10,57,7.40
2008,04,18,10,58,7.50
2008,04,18,10,59,7.60
2008,04,18,11,00,7.60
2008,04,18,11,01,7.70
2008,04,18,11,02,7.70
2008,04,18,11,03,7.70
2008,04,18,11,04,7.80
2008,04,18,11,05,7.80
2008,04,18,11,06,7.80
2008,04,18,11,07,7.80
2008,04,18,11,08,7.80
2008,04,18,11,09,7.80
2008,04,18,11,10,7.80
2008,04,18,11,11,7.80
2008,04,18,11,12,7.80
2008,04,18,11,13,7.80
2008,04,18,11,14,7.80
2008,04,18,11,15,7.80
2008,04,18,11,16,7.80
2008,04,18,11,17,7.80
2008,04,18,11,18,7.80
2008,04,18,11,19,7.80
2008,04,18,11,20,7.80
2008,04,18,11,21,7.80
2008,04,18,11,22,7.80
2008,04,18,11,23,7.80
2008,04,18,11,24,7.80
2008,04,18,11,25,7.80
2008,04,18,11,26,7.80
2008,04,18,11,27,7.70
2008,04,18,11,28,7.70
2008,04,18,11,29,7.60
2008,04,18,11,30,7.50
2008,04,18,11,31,7.30
2008,04,18,11,32,7.20
2008,04,18,11,33,6.90
2008,04,18,11,34,6.80
2008,04,18,11,35,6.70
2008,04,18,11,36,6.60
2008,04,18,11,37,6.40
2008,04,18,11,38,6.40
2008,04,18,11,39,6.30
2008,04,18,11,40,6.20
2008,04,18,11,41,6.20
2008,04,18,11,42,6.10
2008,04,18,11,43,6.00
2008,04,18,11,44,5.90
2008,04,18,11,45,5.80
2008,04,18,11,46,5.70
2008,04,18,11,47,5.60
2008,04,18,11,48,5.50
2008,04,18,11,49,5.40
2008,04,18,11,50,5.30
2008,04,18,11,51,5.20
2008,04,18,11,52,5.10
2008,04,18,11,53,5.10
2008,04,18,11,54,4.90
2008,04,18,11,55,4.80
2008,04,18,11,56,4.70
2008,04,18,11,57,4.70
2008,04,18,11,58,4.60
2008,04,18,11,59,4.50
2008,04,18,12,00,4.50
2008,04,18,12,01,4.40
2008,04,18,12,02,4.40
2008,04,18,12,03,4.40
2008,04,18,12,04,4.30
2008,04,18,12,05,4.30
2008,04,18,12,06,4.30
2008,04,18,12,07,4.20
2008,04,18,12,08,4.20
2008,04,18,12,09,4.10
2008,04,18,12,10,4.10
2008,04,18,12,11,4.00
2008,04,18,12,12,3.90
2008,04,18,12,13,3.80
2008,04,18,12,14,3.80
2008,04,18,12,15,3.60
2008,04,18,12,16,3.30
2008,04,18,12,17,3.10
2008,04,18,12,18,2.90
2008,04,18,12,19,2.70
2008,04,18,12,20,2.60
2008,04,18,12,21,2.40
2008,04,18,12,22,2.30
2008,04,18,12,23,2.20
2008,04,18,12,24,2.10
2008,04,18,12,25,2.00
2008,04,18,12,26,1.90
2008,04,18,12,27,1.90
2008,04,18,12,28,1.80
2008,04,18,12,29,1.70
2008,04,18,12,30,1.70
2008,04,18,12,31,1.70
2008,04,18,12,32,1.60
2008,04,18,12,33,1.50
2008,04,18,12,34,1.40
2008,04,18,12,35,1.30
2008,04,18,12,36,1.30
2008,04,18,12,37,1.30
2008,04,18,12,38,1.30
2008,04,18,12,39,1.30
2008,04,18,12,40,1.20
2008,04,18,12,41,1.20
2008,04,18,12,42,1.10
2008,04,18,12,43,1.10
2008,04,18,12,44,1.10
2008,04,18,12,45,1.10
2008,04,18,12,46,1.00
2008,04,18,12,47,1.00
2008,04,18,12,48,1.00
2008,04,18,12,49,1.00
2008,04,18,12,50,1.00
2008,04,18,12,51,1.00
2008,04,18,12,52,1.00
2008,04,18,12,53,1.00
2008,04,18,12,54,1.00
2008,04,18,12,55,1.00
2008,04,18,12,56,1.00
2008,04,18,12,57,1.00
2008,04,18,12,58,1.00
2008,04,18,12,59,1.00
2008,04,18,13,00,1.00
2008,04,18,13,01,1.00
2008,04,18,13,02,1.00
2008,04,18,13,03,1.00
2008,04,18,13,04,1.00
2008,04,18,13,05,1.00
2008,04,18,13,06,1.00
2008,04,18,13,07,1.00
2008,04,18,13,08,1.00
2008,04,18,13,09,1.00
2008,04,18,13,10,1.00
2008,04,18,13,11,1.00
2008,04,18,13,12,1.00
2008,04,18,13,13,1.00
2008,04,18,13,14,1.10
2008,04,18,13,15,1.10
2008,04,18,13,16,1.10
2008,04,18,13,17,1.10
2008,04,18,13,18,1.10
2008,04,18,13,19,1.20
2008,04,18,13,20,1.20
2008,04,18,13,21,1.20
2008,04,18,13,22,1.30
2008,04,18,13,23,1.30
2008,04,18,13,24,1.30
2008,04,18,13,25,1.30
2008,04,18,13,26,1.30
2008,04,18,13,27,1.30
2008,04,18,13,28,1.40
2008,04,18,13,29,1.40
2008,04,18,13,30,1.50
2008,04,18,13,31,1.50
2008,04,18,13,32,1.60
2008,04,18,13,33,1.60
2008,04,18,13,34,1.70
2008,04,18,13,35,1.70
2008,04,18,13,36,1.80
2008,04,18,13,37,1.80
2008,04,18,13,38,1.90
2008,04,18,13,39,2.00
2008,04,18,13,40,2.10
2008,04,18,13,41,2.10
2008,04,18,13,42,2.10
2008,04,18,13,43,2.20
2008,04,18,13,44,2.20
2008,04,18,13,45,2.20
2008,04,18,13,46,2.20
2008,04,18,13,47,2.20
2008,04,18,13,48,2.20
2008,04,18,13,49,2.20
2008,04,18,13,50,2.20
2008,04,18,13,51,2.20
2008,04,18,13,52,2.20
2008,04,18,13,53,2.20
2008,04,18,13,54,2.20
2008,04,18,13,55,2.20
2008,04,18,13,56,2.20
2008,04,18,13,57,2.20
2008,04,18,13,58,2.20
2008,04,18,13,59,2.20
2008,04,18,14,00,2.20
2008,04,18,14,01,2.30
2008,04,18,14,02,2.30
2008,04,18,14,03,2.40
2008,04,18,14,04,2.40
2008,04,18,14,05,2.40
2008,04,18,14,06,2.50
2008,04,18,14,07,2.60
2008,04,18,14,08,2.60
2008,04,18,14,09,2.70
2008,04,18,14,10,2.70
2008,04,18,14,11,2.70
2008,04,18,14,12,2.80
2008,04,18,14,13,2.80
2008,04,18,14,14,2.90
2008,04,18,14,15,2.90
2008,04,18,14,16,3.00
2008,04,18,14,17,3.10
2008,04,18,14,18,3.20
2008,04,18,14,19,3.20
2008,04,18,14,20,3.30
2008,04,18,14,21,3.30
2008,04,18,14,22,3.40
2008,04,18,14,23,3.50
2008,04,18,14,24,3.60
2008,04,18,14,25,3.60
2008,04,18,14,26,3.70
2008,04,18,14,27,3.70
2008,04,18,14,28,3.80
2008,04,18,14,29,3.80
2008,04,18,14,30,3.90
2008,04,18,14,31,4.00
2008,04,18,14,32,4.10
2008,04,18,14,33,4.10
2008,04,18,14,34,4.20
2008,04,18,14,35,4.30
2008,04,18,14,36,4.30
2008,04,18,14,37,4.30
2008,04,18,14,38,4.40
2008,04,18,14,39,4.40
2008,04,18,14,40,4.40
2008,04,18,14,41,4.50
2008,04,18,14,42,4.50
2008,04,18,14,43,4.50
2008,04,18,14,44,4.60
2008,04,18,14,45,4.60
2008,04,18,14,46,4.60
2008,04,18,14,47,4.60
2008,04,18,14,48,4.60
2008,04,18,14,49,4.60
2008,04,18,14,50,4.60
2008,04,18,14,51,4.70
2008,04,18,14,52,4.70
2008,04,18,14,53,4.60
2008,04,18,14,54,4.70
2008,04,18,14,55,4.70
2008,04,18,14,56,4.70
2008,04,18,14,57,4.70
2008,04,18,14,58,4.70
2008,04,18,14,59,4.70
2008,04,18,15,00,4.70
2008,04,18,15,01,4.70
2008,04,18,15,02,4.70
2008,04,18,15,03,4.80
2008,04,18,15,04,4.80
2008,04,18,15,05,4.90
2008,04,18,15,06,5.00
2008,04,18,15,07,5.10
2008,04,18,15,08,5.10
2008,04,18,15,09,5.20
2008,04,18,15,10,5.30
2008,04,18,15,11,5.40
2008,04,18,15,12,5.60
2008,04,18,15,13,5.70
2008,04,18,15,14,5.80
2008,04,18,15,15,5.90
2008,04,18,15,16,6.00
2008,04,18,15,17,6.10
2008,04,18,15,18,6.20
2008,04,18,15,19,6.30
2008,04,18,15,20,6.30
2008,04,18,15,21,6.40
2008,04,18,15,22,6.40
2008,04,18,15,23,6.40
2008,04,18,15,24,6.40
2008,04,18,15,25,6.50
2008,04,18,15,26,6.60
2008,04,18,15,27,6.60
2008,04,18,15,28,6.70
2008,04,18,15,29,6.70
2008,04,18,15,30,6.70
2008,04,18,15,31,6.80
2008,04,18,15,32,6.80
2008,04,18,15,33,6.80
2008,04,18,15,34,6.80
2008,04,18,15,35,6.80
2008,04,18,15,36,6.90
2008,04,18,15,37,6.90
2008,04,18,15,38,7.00
2008,04,18,15,39,7.10
2008,04,18,15,40,7.20
2008,04,18,15,41,7.20
2008,04,18,15,42,7.30
2008,04,18,15,43,7.30
2008,04,18,15,44,7.30
2008,04,18,15,45,7.30
2008,04,18,15,46,7.30
2008,04,18,15,47,7.30
2008,04,18,15,48,7.30
2008,04,18,15,49,7.30
2008,04,18,15,50,7.30
2008,04,18,15,51,7.30
2008,04,18,15,52,7.30
2008,04,18,15,53,7.30
2008,04,18,15,54,7.40
2008,04,18,15,55,7.40
2008,04,18,15,56,7.30
2008,04,18,15,57,7.30
2008,04,18,15,58,7.30
2008,04,18,15,59,7.30
2008,04,18,16,00,7.20
2008,04,18,16,01,7.20
2008,04,18,16,02,7.20
2008,04,18,16,03,7.20
2008,04,18,16,04,7.20
2008,04,18,16,05,7.20
2008,04,18,16,06,7.20
2008,04,18,16,07,7.20
2008,04,18,16,08,7.20
2008,04,18,16,09,7.20
2008,04,18,16,10,7.30
2008,04,18,16,11,7.30
2008,04,18,16,12,7.40
2008,04,18,16,13,7.40
2008,04,18,16,14,7.40
2008,04,18,16,15,7.40
2008,04,18,16,16,7.50
2008,04,18,16,17,7.50
2008,04,18,16,18,7.50
2008,04,18,16,19,7.50
2008,04,18,16,20,7.50
2008,04,18,16,21,7.50
2008,04,18,16,22,7.50
2008,04,18,16,23,7.50
2008,04,18,16,24,7.50
2008,04,18,16,25,7.50
2008,04,18,16,26,7.50
2008,04,18,16,27,7.60
2008,04,18,16,28,7.60
2008,04,18,16,29,7.60
2008,04,18,16,30,7.60
2008,04,18,16,31,7.60
2008,04,18,16,32,7.60
2008,04,18,16,33,7.60
2008,04,18,16,34,7.60
2008,04,18,16,35,7.60
2008,04,18,16,36,7.60
2008,04,18,16,37,7.60
2008,04,18,16,38,7.60
2008,04,18,16,39,7.70
2008,04,18,16,40,7.70
2008,04,18,16,41,7.70
2008,04,18,16,42,7.80
2008,04,18,16,43,7.80
2008,04,18,16,44,7.80
2008,04,18,16,45,7.80
2008,04,18,16,46,7.80
2008,04,18,16,47,7.80
2008,04,18,16,48,7.80
2008,04,18,16,49,7.80
2008,04,18,16,50,7.70
2008,04,18,16,51,7.70
2008,04,18,16,52,7.60
2008,04,18,16,53,7.60
2008,04,18,16,54,7.50
2008,04,18,16,55,7.40
2008,04,18,16,56,7.40
2008,04,18,16,57,7.40
2008,04,18,16,58,7.50
2008,04,18,16,59,7.50
2008,04,18,17,00,7.50
2008,04,18,17,01,7.60
2008,04,18,17,02,7.60
2008,04,18,17,03,7.60
2008,04,18,17,04,7.60
2008,04,18,17,05,7.60
2008,04,18,17,06,7.50
2008,04,18,17,07,7.50
2008,04,18,17,08,7.60
2008,04,18,17,09,7.60
2008,04,18,17,10,7.70
2008,04,18,17,11,7.70
2008,04,18,17,12,7.80
2008,04,18,17,13,7.80
2008,04,18,17,14,7.90
2008,04,18,17,15,8.10
2008,04,18,17,16,8.20
2008,04,18,17,17,8.20
2008,04,18,17,18,8.30
2008,04,18,17,19,8.40
2008,04,18,17,20,8.50
2008,04,18,17,21,8.60
2008,04,18,17,22,8.60
2008,04,18,17,23,8.70
2008,04,18,17,24,8.80
2008,04,18,17,25,8.90
2008,04,18,17,26,9.00
2008,04,18,17,27,9.10
2008,04,18,17,28,9.20
2008,04,18,17,29,9.30
2008,04,18,17,30,9.30
2008,04,18,17,31,9.40
2008,04,18,17,32,9.50
2008,04,18,17,33,9.60
2008,04,18,17,34,9.60
2008,04,18,17,35,9.70
2008,04,18,17,36,9.70
2008,04,18,17,37,9.80
2008,04,18,17,38,9.80
2008,04,18,17,39,9.90
2008,04,18,17,40,9.90
2008,04,18,17,41,9.90
2008,04,18,17,42,9.90
2008,04,18,17,43,9.90
2008,04,18,17,44,9.80
2008,04,18,17,45,9.70
2008,04,18,17,46,9.60
2008,04,18,17,47,9.60
2008,04,18,17,48,9.60
2008,04,18,17,49,9.60
2008,04,18,17,50,9.50
2008,04,18,17,51,9.40
2008,04,18,17,52,9.40
2008,04,18,17,53,9.30
2008,04,18,17,54,9.30
2008,04,18,17,55,9.30
2008,04,18,17,56,9.20
2008,04,18,17,57,9.20
2008,04,18,17,58,9.10
2008,04,18,17,59,9.00
2008,04,18,18,00,8.90
2008,04,18,18,01,8.90
2008,04,18,18,02,8.80
2008,04,18,18,03,8.80
2008,04,18,18,04,8.80
2008,04,18,18,05,8.80
2008,04,18,18,06,8.80
2008,04,18,18,07,8.80
2008,04,18,18,08,8.90
2008,04,18,18,09,8.90
2008,04,18,18,10,9.00
2008,04,18,18,11,9.10
2008,04,18,18,12,9.10
2008,04,18,18,13,9.10
2008,04,18,18,14,9.20
2008,04,18,18,15,9.30
2008,04,18,18,16,9.40
2008,04,18,18,17,9.50
2008,04,18,18,18,9.60
2008,04,18,18,19,9.70
2008,04,18,18,20,9.80
2008,04,18,18,21,9.80
2008,04,18,18,22,9.90
2008,04,18,18,23,10.10
2008,04,18,18,24,10.20
2008,04,18,18,25,10.30
2008,04,18,18,26,10.40
2008,04,18,18,27,10.40
2008,04,18,18,28,10.60
2008,04,18,18,29,10.60
2008,04,18,18,30,10.70